ISS - Orbit

View from above orbital plane
View from above orbital plane
View from above satellite
View from above satellite

Ground track
Ground track

The orbit data is extracted from the following two-line orbital elements,

1 25544U 98067A   13169.97780443  .00006593  00000-0  11158-3 0   311
2 25544 051.6465 099.4660 0010504 083.1100 277.1602 15.50858990834983
Epoch (UTC): 18 June 2013 23:28:02
Eccentricity: 0.0010504
inclination: 51.6465°
perigee height: 407 km
apogee height: 421 km
right ascension of ascending node: 99.4660°
argument of perigee: 83.1100°
revolutions per day: 15.50858990
mean anomaly at epoch: 277.1602°
orbit number at epoch: 83498

The dashed part of the orbit path shows where the satellite is in the earth's shadow,  

Developed and maintained by Chris Peat, Heavens-Above GmbH. Please read the updated FAQ before sending e-mail. Imprint. DLR